Albany, NY

7:19 PM EST on December 12, 2019 (GMT -0500)
Albany International

Weather History for KALB - August, 2019

Change the Weather History Date:

Saturday, August 17, 2019

  Actual Average Record
Temperature  
Mean Temperature 78 °F 70 °F  
Max Temperature 88 °F 81 °F 97 °F (1913)
Min Temperature 67 °F 60 °F 40 °F (1979)
Degree Days  
Heating Degree Days 0 0  
Month to date heating degree days 0 0  
Since 1 June heating degree days 27 57  
Since 1 July heating degree days 0 5  
Cooling Degree Days 13 6  
Month to date cooling degree days 136 111  
Year to date cooling degree days 642 477  
Since 1 June cooling degree days 620 447  
Growing Degree Days 28 (Base 50)    
Moisture  
Dew Point 67 °F    
Average Humidity 69    
Maximum Humidity 87    
Minimum Humidity 50    
Precipitation  
Precipitation 0.38 in 0.11 in 1.08 in (1944)
Month to date precipitation 2.72 2.03  
Year to date precipitation 27.58 24.72  
Sea Level Pressure  
Sea Level Pressure 29.99 in    
Wind  
Wind Speed 9 mph (South)    
Max Wind Speed 33 mph    
Max Gust Speed 42 mph    
Visibility 9 miles    
Events Fog , Rain , Thunderstorm    
T = Trace of Precipitation, MM = Missing Value Source: NWS Daily Summary

Daily Weather History Graph

Daily Weather History Graph

Search for Another Location

Airport or City:

Astronomy

Aug. 17, 2019 Rise Set
Actual Time 6:03 AM EDT 7:54 PM EDT
Civil Twilight 5:33 AM EDT 8:24 PM EDT
Nautical Twilight 4:56 AM EDT 9:01 PM EDT
Astronomical Twilight 4:15 AM EDT 9:41 PM EDT
Moon 9:18 PM EDT (8/17) 7:50 AM EDT (8/17)
Length of Visible Light 14h 51m
Length of Day
13h 50m
Waning Gibbous, 96% of the Moon is Illuminated
Aug 17
Waning Gibbous
Aug 23
Last Quarter
Aug 30
New
Sep 5
First Quarter
Sep 14
Full

Hourly Weather History & Observations

Time (EDT) Temp. Heat Index Dew Point Humidity Pressure Visibility Wind Dir Wind Speed Gust Speed Precip Events Conditions
12:51 AM 71.1 °F - 66.0 °F 84% 30.01 in 10.0 mi South 6.9 mph - N/A   Scattered Clouds
1:51 AM 72.0 °F - 66.0 °F 81% 30.01 in 10.0 mi SSE 6.9 mph - N/A   Scattered Clouds
2:51 AM 72.0 °F - 66.0 °F 81% 30.01 in 10.0 mi South 9.2 mph - N/A   Mostly Cloudy
3:32 AM 72.0 °F - 66.0 °F 81% 30.02 in 10.0 mi SW 9.2 mph - N/A   Overcast
3:51 AM 72.0 °F - 66.9 °F 84% 30.02 in 10.0 mi SSW 8.1 mph - N/A   Overcast
4:51 AM 72.0 °F - 66.9 °F 84% 30.02 in 10.0 mi South 9.2 mph - N/A   Overcast
5:22 AM 72.0 °F - 66.9 °F 84% 30.01 in 10.0 mi South 8.1 mph - 0.00 in Rain Light Rain
5:44 AM 72.0 °F - 66.9 °F 84% 30.01 in 10.0 mi South 9.2 mph - 0.00 in   Mostly Cloudy
5:51 AM 72.0 °F - 66.9 °F 84% 30.00 in 10.0 mi South 8.1 mph - 0.00 in   Overcast
6:13 AM 72.0 °F - 66.9 °F 84% 30.00 in 10.0 mi South 8.1 mph - N/A   Overcast
6:51 AM 72.0 °F - 66.9 °F 84% 30.01 in 10.0 mi South 10.4 mph 17.3 mph N/A   Overcast
7:51 AM 72.0 °F - 66.9 °F 84% 30.02 in 8.0 mi South 6.9 mph - N/A   Overcast
8:51 AM 73.0 °F - 68.0 °F 84% 30.02 in 9.0 mi South 9.2 mph - N/A   Overcast
9:16 AM 73.9 °F - 68.0 °F 82% 30.02 in 10.0 mi South 6.9 mph - N/A   Overcast
9:51 AM 75.9 °F - 68.0 °F 76% 30.01 in 10.0 mi South 10.4 mph - N/A   Overcast
10:16 AM 78.1 °F - 69.1 °F 74% 30.01 in 10.0 mi South 10.4 mph - N/A   Mostly Cloudy
10:51 AM 80.1 °F 83.2 °F 70.0 °F 71% 30.01 in 10.0 mi SSE 9.2 mph - N/A   Mostly Cloudy
11:51 AM 82.0 °F 85.9 °F 70.0 °F 67% 30.01 in 10.0 mi SSE 10.4 mph 17.3 mph N/A   Mostly Cloudy
12:28 PM 82.9 °F 87.0 °F 70.0 °F 65% 30.00 in 10.0 mi South 11.5 mph - N/A   Mostly Cloudy
12:51 PM 84.0 °F 87.8 °F 69.1 °F 61% 29.99 in 10.0 mi SSE 8.1 mph - N/A   Mostly Cloudy
1:26 PM 84.9 °F 88.8 °F 69.1 °F 59% 29.99 in 10.0 mi South 12.7 mph - N/A   Mostly Cloudy
1:51 PM 86.0 °F 90.1 °F 69.1 °F 57% 29.97 in 10.0 mi SSE 12.7 mph - N/A Thunderstorm Thunderstorm
2:51 PM 87.1 °F 89.9 °F 66.9 °F 51% 29.95 in 10.0 mi South 12.7 mph - N/A Thunderstorm Thunderstorm
3:46 PM 84.2 °F 86.6 °F 66.2 °F 55% 29.93 in 10.0 mi SSE 12.7 mph - N/A   Mostly Cloudy
3:51 PM 84.9 °F 86.6 °F 64.9 °F 51% 29.91 in 10.0 mi SSE 12.7 mph 20.7 mph N/A   Mostly Cloudy
4:51 PM 87.1 °F 89.2 °F 66.0 °F 49% 29.90 in 10.0 mi South 17.3 mph 24.2 mph N/A   Mostly Cloudy
5:35 PM 81.0 °F 83.0 °F 66.0 °F 60% 29.97 in 10.0 mi NNW 33.4 mph 42.6 mph 0.00 in Rain , Thunderstorm Light Thunderstorms and Rain
5:47 PM 71.6 °F - 66.2 °F 83% 30.00 in 4.0 mi NW 8.1 mph 35.7 mph 0.00 in Rain , Thunderstorm Light Thunderstorms and Rain
5:51 PM 71.1 °F - 66.9 °F 87% 29.99 in 4.0 mi NNW 18.4 mph 27.6 mph 0.01 in Rain , Thunderstorm Thunderstorms and Rain
5:53 PM 71.1 °F - 66.9 °F 87% 29.99 in 0.8 mi NW 19.6 mph 27.6 mph 0.02 in Rain , Thunderstorm Heavy Thunderstorms and Rain
6:10 PM 71.1 °F - 66.0 °F 84% 29.99 in 3.0 mi NNW 8.1 mph - 0.30 in Rain , Thunderstorm Light Thunderstorms and Rain
6:20 PM 71.1 °F - 66.0 °F 84% 29.99 in 7.0 mi North 5.8 mph - 0.30 in Rain , Thunderstorm Light Thunderstorms and Rain
6:51 PM 71.1 °F - 66.0 °F 84% 29.99 in 6.0 mi NW 5.8 mph - 0.31 in Rain , Thunderstorm Light Thunderstorms and Rain
7:18 PM 70.0 °F - 66.9 °F 90% 29.98 in 6.0 mi East 6.9 mph - 0.05 in Rain Light Rain
7:51 PM 70.0 °F - 66.0 °F 87% 29.97 in 10.0 mi SE 3.5 mph - 0.06 in Rain Light Rain
8:51 PM 70.0 °F - 66.0 °F 87% 29.99 in 10.0 mi SSW 8.1 mph - 0.00 in   Mostly Cloudy
9:51 PM 68.0 °F - 64.9 °F 90% 29.98 in 10.0 mi SSW 6.9 mph - N/A   Mostly Cloudy
10:51 PM 68.0 °F - 64.9 °F 90% 29.99 in 10.0 mi Calm Calm - N/A   Mostly Cloudy
11:51 PM 68.0 °F - 64.9 °F 90% 29.99 in 10.0 mi Calm Calm - N/A Fog Mostly Cloudy